Tucson, AZ

7:09 AM MST on August 23, 2019 (GMT -0700)
Tucson International

Weather History for KTUS - July, 2019

Change the Weather History Date:

Monday, July 22, 2019

  Actual Average Record
Temperature  
Mean Temperature 88 °F 87 °F  
Max Temperature 103 °F 99 °F 108 °F (2006)
Min Temperature 73 °F 75 °F 63 °F (1973)
Degree Days  
Heating Degree Days 0 0  
Month to date heating degree days 0 0  
Since 1 June heating degree days 0 0  
Since 1 July heating degree days 0 0  
Cooling Degree Days 23 22  
Month to date cooling degree days 566 496  
Year to date cooling degree days 1551 1592  
Since 1 June cooling degree days 1179 1090  
Growing Degree Days 38 (Base 50)    
Moisture  
Dew Point 63 °F    
Average Humidity 52    
Maximum Humidity 79    
Minimum Humidity 22    
Precipitation  
Precipitation 0.09 in 0.09 in 2.12 in (1955)
Month to date precipitation 0.38 1.41  
Year to date precipitation 5.41 4.68  
Sea Level Pressure  
Sea Level Pressure 29.98 in    
Wind  
Wind Speed 9 mph (SE)    
Max Wind Speed 36 mph    
Max Gust Speed 47 mph    
Visibility 10 miles    
Events Rain , Thunderstorm    
T = Trace of Precipitation, MM = Missing Value Source: NWS Daily Summary

Daily Weather History Graph

Daily Weather History Graph

Search for Another Location

Airport or City:

Astronomy

Jul. 22, 2019 Rise Set
Actual Time 5:32 AM MST 7:27 PM MST
Civil Twilight 5:04 AM MST 7:55 PM MST
Nautical Twilight 4:31 AM MST 8:28 PM MST
Astronomical Twilight 3:56 AM MST 9:03 PM MST
Moon 11:08 PM MST (7/22) 10:36 AM MST (7/22)
Length of Visible Light 14h 50m
Length of Day
13h 55m
Waning Gibbous, 71% of the Moon is Illuminated
Jul 22
Waning Gibbous
Jul 24
Last Quarter
Jul 31
New
Aug 7
First Quarter
Aug 15
Full

Hourly Weather History & Observations

Time (MST) Temp. Heat Index Dew Point Humidity Pressure Visibility Wind Dir Wind Speed Gust Speed Precip Events Conditions
12:53 AM 84.0 °F 84.4 °F 61.0 °F 46% 29.85 in 10.0 mi South 8.1 mph - N/A   Clear
1:53 AM 84.9 °F 84.2 °F 57.9 °F 40% 29.85 in 10.0 mi Calm Calm - N/A   Clear
2:53 AM 84.0 °F 83.5 °F 57.9 °F 41% 29.85 in 10.0 mi SSE 8.1 mph - N/A   Clear
3:53 AM 82.9 °F 83.7 °F 62.1 °F 49% 29.88 in 10.0 mi South 12.7 mph - N/A   Clear
4:53 AM 82.0 °F 82.7 °F 61.0 °F 49% 29.91 in 10.0 mi South 11.5 mph - N/A   Clear
5:53 AM 82.0 °F 82.7 °F 61.0 °F 49% 29.92 in 10.0 mi SSE 5.8 mph - N/A   Clear
6:53 AM 82.0 °F 83.0 °F 62.1 °F 51% 29.92 in 10.0 mi SE 3.5 mph - N/A   Clear
7:53 AM 84.0 °F 84.5 °F 62.1 °F 47% 29.95 in 10.0 mi SE 5.8 mph - N/A   Clear
8:53 AM 87.1 °F 87.5 °F 62.1 °F 43% 29.95 in 10.0 mi NE 3.5 mph - N/A   Clear
9:53 AM 90.0 °F 90.0 °F 61.0 °F 38% 29.94 in 10.0 mi WNW 4.6 mph - N/A   Clear
10:53 AM 93.9 °F 94.0 °F 61.0 °F 33% 29.94 in 10.0 mi NE 5.8 mph - N/A   Clear
11:20 AM 93.0 °F 93.0 °F 61.0 °F 34% 30.09 in 10.0 mi North - - N/A   Clear
11:53 AM 96.1 °F 96.0 °F 60.1 °F 30% 29.91 in 10.0 mi NNW 11.5 mph 17.3 mph N/A   Clear
12:53 PM 97.0 °F 96.9 °F 60.1 °F 29% 29.89 in 10.0 mi NW 11.5 mph - N/A   Clear
1:53 PM 98.1 °F 97.7 °F 59.0 °F 27% 29.86 in 10.0 mi West 12.7 mph 19.6 mph N/A   Clear
2:53 PM 100.0 °F 100.2 °F 59.0 °F 26% 29.82 in 10.0 mi NNW 12.7 mph - N/A   Clear
3:53 PM 100.9 °F 100.5 °F 57.9 °F 24% 29.81 in 10.0 mi North 9.2 mph - N/A   Clear
4:43 PM 98.1 °F 96.8 °F 57.0 °F 25% 29.99 in 10.0 mi NW 9.2 mph - N/A Thunderstorm Thunderstorm
4:53 PM 93.0 °F 92.3 °F 59.0 °F 32% 29.85 in 10.0 mi NW 9.2 mph - N/A Thunderstorm Scattered Clouds
5:18 PM 79.0 °F - 66.9 °F 66% 30.05 in 10.0 mi South 25.3 mph 44.9 mph 0.00 in Rain , Thunderstorm Light Thunderstorms and Rain
5:33 PM 78.1 °F - 64.0 °F 62% 30.05 in 10.0 mi SSW 21.9 mph 35.7 mph 0.00 in   Scattered Clouds
5:40 PM 79.0 °F - 62.1 °F 56% 30.05 in 10.0 mi SSW 23.0 mph 35.7 mph 0.00 in Thunderstorm Scattered Clouds
5:53 PM 80.1 °F 81.1 °F 61.0 °F 52% 29.90 in 10.0 mi South 20.7 mph 28.8 mph 0.00 in Thunderstorm Scattered Clouds
6:00 PM 81.0 °F 81.3 °F 59.0 °F 47% 30.03 in 10.0 mi SW 13.8 mph 28.8 mph N/A Thunderstorm Thunderstorm
6:24 PM 82.0 °F 82.1 °F 59.0 °F 45% 30.03 in 1.5 mi SSW 9.2 mph - 0.00 in Rain , Thunderstorm Light Thunderstorms and Rain
6:34 PM 78.1 °F - 63.0 °F 60% 30.05 in 10.0 mi NNE 6.9 mph - 0.02 in Rain , Thunderstorm Thunderstorms and Rain
6:53 PM 77.0 °F - 64.0 °F 64% 29.97 in 10.0 mi ENE 10.4 mph 18.4 mph 0.07 in Thunderstorm Thunderstorm
7:04 PM 77.0 °F - 66.0 °F 69% 30.08 in 10.0 mi North - - N/A Thunderstorm Scattered Clouds
7:33 PM 75.9 °F - 66.0 °F 71% 30.09 in 10.0 mi NE 8.1 mph 20.7 mph 0.00 in   Scattered Clouds
7:51 PM 75.2 °F - 68.0 °F 78% 30.11 in 10.0 mi NNE 11.5 mph 19.6 mph 0.00 in Thunderstorm Mostly Cloudy
7:53 PM 75.0 °F - 68.0 °F 79% 29.98 in 10.0 mi NNE 11.5 mph 19.6 mph 0.00 in Thunderstorm Mostly Cloudy
8:06 PM 75.9 °F - 68.0 °F 76% 30.09 in 10.0 mi NE 6.9 mph - N/A   Scattered Clouds
8:21 PM 77.0 °F - 68.0 °F 74% 30.09 in 10.0 mi NW 6.9 mph - N/A   Partly Cloudy
8:53 PM 73.9 °F - 66.0 °F 76% 30.00 in 10.0 mi NNW 10.4 mph - N/A   Clear
9:53 PM 75.9 °F - 66.0 °F 71% 29.99 in 10.0 mi NNW 6.9 mph - N/A   Clear
10:07 PM 75.9 °F - 66.0 °F 71% 30.15 in 10.0 mi Calm Calm - N/A Thunderstorm Clear
10:26 PM 77.0 °F - 66.0 °F 69% 30.19 in 10.0 mi SE 8.1 mph - N/A   Mostly Cloudy
10:53 PM 75.9 °F - 66.0 °F 71% 30.05 in 10.0 mi South 13.8 mph 23.0 mph N/A   Overcast
11:05 PM 73.9 °F - 66.9 °F 79% 30.19 in 10.0 mi South 15.0 mph 25.3 mph 0.00 in Rain , Thunderstorm Light Rain
11:28 PM 73.0 °F - 66.0 °F 79% 30.18 in 10.0 mi South 6.9 mph - 0.01 in Rain Light Rain
11:53 PM 73.9 °F - 66.0 °F 76% 30.02 in 10.0 mi NE 6.9 mph - 0.02 in Rain Light Rain